Location: Ferchesar
(52.6477°N, 12.4298°E)
Time: 04:28:53
(UTC+01:00)

Explorer 7 - Pass Details

Date: 08 December 2021
Orbit: 483 x 674 km, 50.3° (Epoch: 21 January)

Event Time Altitude Azimuth Distance (km) Brightness Sun altitude
Rises 03:11:49 0° 185° (S) 2,895 - -43.3°
Reaches altitude 10° 03:16:38 10° 140° (SE) 1,932 - -42.6°
Maximum altitude 03:16:58 10° 136° (SE) 1,923 - -42.6°
Drops below altitude 10° 03:17:18 10° 132° (SE) 1,924 - -42.5°
Exits shadow 03:20:35 - 95° (E) 2,399 10.7 -42.0°
Sets 03:21:55 0° 86° (E) 2,760 11.2 -41.8°
